Location: Unspecified
(51.0950°N, 12.9690°E)
Time: 22:43:28
(UTC+00:00)

Cosmos 1023 Rocket - Pass Details

Date: 28 October 2021
Orbit: 735 x 773 km, 74.1° (Epoch: 01 December)

Event Time Altitude Azimuth Distance (km) Brightness Sun altitude
Rises 17:19:34 0° 336° (NNW) 3,222 8.0 -14.7°
Reaches altitude 10° 17:21:57 10° 337° (NNW) 2,299 7.2 -15.1°
Maximum altitude 17:27:11 78° 65° (ENE) 786 4.4 -15.9°
Drops below altitude 10° 17:32:25 10° 152° (SSE) 2,305 6.7 -16.7°
Enters shadow 17:34:42 - 153° (SSE) 3,193 7.5 -17.1°
